SXS1FG LTAI-EDDE

Flight info

Callsign SXS1FG
Flight time N/A
Altitude 36000
Route EKNUD UQ26 TUDBU DCT APROB DCT INVED DCT DITIS DCT APRAQ DCT DONAD DCT VARIK L602 NARUS NARUS1V
Aircraft B38M/M-SDE1FGHILORVWXY/HB1

Departure

Time N/A
Airport Antalya International Airport (LTAI)

Arrival

Time 2026-05-04 18:49
Airport Erfurt-Weimar Airport (EDDE)
Time Latitude Longitude Altitude Speed Heading
2026-05-04 18:17 49.62949 14.14559 35925 ft 443 kts 311°
2026-05-04 18:18 49.65009 14.11017 35928 ft 441 kts 306°
2026-05-04 18:18 49.68475 14.03334 35939 ft 439 kts 300°
2026-05-04 18:18 49.70069 13.99322 35817 ft 433 kts 298°
2026-05-04 18:19 49.73097 13.91467 35333 ft 417 kts 298°
2026-05-04 18:19 49.74583 13.87585 35096 ft 420 kts 298°
2026-05-04 18:19 49.76073 13.83701 34861 ft 425 kts 298°
2026-05-04 18:20 49.77583 13.79773 34595 ft 425 kts 298°
2026-05-04 18:20 49.79097 13.75846 34318 ft 428 kts 298°
2026-05-04 18:20 49.80641 13.71843 34043 ft 441 kts 298°
2026-05-04 18:20 49.82210 13.67773 33769 ft 446 kts 298°
2026-05-04 18:21 49.83796 13.63664 33492 ft 445 kts 298°
2026-05-04 18:21 49.85392 13.59530 33216 ft 445 kts 298°
2026-05-04 18:21 49.86964 13.55452 32939 ft 445 kts 298°
2026-05-04 18:21 49.88555 13.51326 32659 ft 446 kts 299°
2026-05-04 18:22 49.90144 13.47195 32385 ft 447 kts 298°
2026-05-04 18:22 49.91748 13.43017 32107 ft 448 kts 299°
2026-05-04 18:22 49.93338 13.38870 31829 ft 449 kts 299°
2026-05-04 18:22 49.94907 13.34769 31557 ft 450 kts 298°
2026-05-04 18:23 49.96528 13.30521 31279 ft 451 kts 298°
2026-05-04 18:23 49.98117 13.26353 31004 ft 453 kts 298°
2026-05-04 18:23 49.99721 13.22143 30731 ft 453 kts 298°
2026-05-04 18:23 50.01282 13.18041 30466 ft 455 kts 298°
2026-05-04 18:24 50.02886 13.13819 30190 ft 455 kts 298°
2026-05-04 18:24 50.04483 13.09600 29919 ft 455 kts 298°
2026-05-04 18:24 50.06108 13.05299 29634 ft 455 kts 298°
2026-05-04 18:24 50.07694 13.01100 29355 ft 453 kts 298°
2026-05-04 18:25 50.09287 12.96803 29079 ft 457 kts 297°
2026-05-04 18:25 50.10809 12.92482 28802 ft 459 kts 296°
2026-05-04 18:25 50.12183 12.88462 28554 ft 459 kts 296°
2026-05-04 18:25 50.13638 12.84152 28291 ft 459 kts 296°
2026-05-04 18:26 50.15083 12.79855 28022 ft 459 kts 296°
2026-05-04 18:26 50.16575 12.75416 27750 ft 460 kts 296°
2026-05-04 18:26 50.18054 12.71023 27479 ft 459 kts 296°
2026-05-04 18:26 50.19530 12.66643 27207 ft 461 kts 296°
2026-05-04 18:27 50.21034 12.62180 26825 ft 463 kts 296°
2026-05-04 18:27 50.22527 12.57754 26054 ft 464 kts 296°
2026-05-04 18:27 50.24030 12.53299 25173 ft 460 kts 296°
2026-05-04 18:27 50.25490 12.48973 24283 ft 444 kts 296°
2026-05-04 18:28 50.26895 12.44805 23406 ft 430 kts 296°
2026-05-04 18:28 50.28271 12.40721 22542 ft 417 kts 296°
2026-05-04 18:28 50.29586 12.36782 21691 ft 405 kts 295°
2026-05-04 18:28 50.30800 12.32903 20849 ft 395 kts 292°
2026-05-04 18:29 50.31931 12.29081 20005 ft 386 kts 291°
2026-05-04 18:29 50.33022 12.25299 19297 ft 373 kts 291°
2026-05-04 18:29 50.34062 12.21682 19019 ft 352 kts 291°
2026-05-04 18:29 50.35063 12.18265 18981 ft 343 kts 292°
2026-05-04 18:30 50.37155 12.11710 18366 ft 348 kts 295°
2026-05-04 18:30 50.38263 12.08353 17712 ft 342 kts 295°
2026-05-04 18:30 50.39337 12.05084 17323 ft 334 kts 294°
2026-05-04 18:31 50.40387 12.01861 17032 ft 337 kts 294°
2026-05-04 18:31 50.41444 11.98590 16676 ft 336 kts 294°
2026-05-04 18:31 50.42476 11.95381 16162 ft 327 kts 294°
2026-05-04 18:31 50.43484 11.92241 15712 ft 322 kts 294°
2026-05-04 18:32 50.44495 11.89079 15234 ft 322 kts 294°
2026-05-04 18:32 50.45488 11.85971 14717 ft 321 kts 294°
2026-05-04 18:32 50.46479 11.82865 14084 ft 319 kts 294°
2026-05-04 18:32 50.47463 11.79784 13407 ft 315 kts 294°
2026-05-04 18:33 50.48428 11.76752 12820 ft 309 kts 294°
2026-05-04 18:33 50.49383 11.73749 12221 ft 304 kts 294°
2026-05-04 18:33 50.50311 11.70825 11626 ft 299 kts 294°
2026-05-04 18:33 50.51233 11.67918 11027 ft 295 kts 294°
2026-05-04 18:34 50.52139 11.65059 10435 ft 291 kts 294°
2026-05-04 18:34 50.53027 11.62248 9853 ft 287 kts 294°
2026-05-04 18:34 50.53904 11.59465 9264 ft 284 kts 294°
2026-05-04 18:34 50.54775 11.56702 8673 ft 282 kts 294°
2026-05-04 18:35 50.55636 11.53970 8142 ft 277 kts 294°
2026-05-04 18:35 50.56480 11.51297 7980 ft 267 kts 294°
2026-05-04 18:35 50.57304 11.48678 7979 ft 268 kts 294°
2026-05-04 18:35 50.58122 11.46069 7977 ft 268 kts 294°
2026-05-04 18:36 50.58955 11.43414 7960 ft 269 kts 294°
2026-05-04 18:36 50.59782 11.40772 7702 ft 270 kts 294°
2026-05-04 18:36 50.60601 11.38161 7383 ft 266 kts 295°
2026-05-04 18:36 50.61415 11.35571 7027 ft 261 kts 294°
2026-05-04 18:37 50.62187 11.33106 6666 ft 254 kts 294°
2026-05-04 18:37 50.62960 11.30631 6281 ft 248 kts 294°
2026-05-04 18:37 50.63708 11.28239 5919 ft 243 kts 294°
2026-05-04 18:37 50.64449 11.25868 5738 ft 242 kts 294°
2026-05-04 18:38 50.65232 11.23523 5562 ft 243 kts 301°
2026-05-04 18:38 50.66389 11.21566 5382 ft 245 kts 327°
2026-05-04 18:38 50.67975 11.20698 5213 ft 246 kts 353°
2026-05-04 18:38 50.69699 11.20780 5041 ft 247 kts
2026-05-04 18:39 50.71310 11.21655 4885 ft 246 kts 26°
2026-05-04 18:39 50.72813 11.22962 4743 ft 246 kts 28°
2026-05-04 18:39 50.74320 11.24266 4644 ft 245 kts 27°
2026-05-04 18:39 50.75812 11.25534 4546 ft 245 kts 27°
2026-05-04 18:40 50.77306 11.26804 4446 ft 243 kts 27°
2026-05-04 18:40 50.78791 11.28082 4381 ft 242 kts 27°
2026-05-04 18:40 50.80281 11.29360 4357 ft 242 kts 27°
2026-05-04 18:40 50.81763 11.30625 4332 ft 242 kts 27°
2026-05-04 18:41 50.83231 11.31896 4307 ft 241 kts 28°
2026-05-04 18:41 50.84649 11.33133 4276 ft 232 kts 28°
2026-05-04 18:41 50.86109 11.34365 4256 ft 233 kts 23°
2026-05-04 18:41 50.87634 11.35081 4222 ft 225 kts
2026-05-04 18:42 50.89155 11.35358 4146 ft 214 kts
2026-05-04 18:42 50.90626 11.35594 4046 ft 209 kts
2026-05-04 18:42 50.92072 11.35805 3973 ft 207 kts 356°
2026-05-04 18:42 50.93433 11.35127 3966 ft 207 kts 323°
2026-05-04 18:43 50.94423 11.33514 3967 ft 206 kts 302°
2026-05-04 18:43 50.94963 11.31446 3965 ft 197 kts 283°
2026-05-04 18:43 50.95197 11.29394 3963 ft 183 kts 278°
2026-05-04 18:43 50.95373 11.27433 3973 ft 176 kts 278°
2026-05-04 18:44 50.95537 11.25525 3964 ft 172 kts 278°
2026-05-04 18:44 50.95640 11.24307 3973 ft 162 kts 278°
2026-05-04 18:44 50.95836 11.21944 3974 ft 162 kts 278°
2026-05-04 18:44 50.95983 11.20176 3912 ft 162 kts 278°
2026-05-04 18:45 50.96130 11.18401 3673 ft 163 kts 278°
2026-05-04 18:45 50.96275 11.16656 3470 ft 155 kts 278°
2026-05-04 18:45 50.96413 11.14982 3232 ft 148 kts 278°
2026-05-04 18:45 50.96542 11.13421 3084 ft 141 kts 278°
2026-05-04 18:46 50.96672 11.11847 2860 ft 143 kts 277°
2026-05-04 18:46 50.96799 11.10309 2674 ft 139 kts 277°
2026-05-04 18:46 50.96924 11.08784 2482 ft 139 kts 276°
2026-05-04 18:46 50.97049 11.07258 2289 ft 138 kts 276°
2026-05-04 18:47 50.97172 11.05749 2106 ft 137 kts 276°
2026-05-04 18:47 50.97297 11.04237 1924 ft 136 kts 276°
2026-05-04 18:47 50.97437 11.02773 1758 ft 136 kts 275°
2026-05-04 18:47 50.97548 11.01281 1611 ft 136 kts 276°
2026-05-04 18:48 50.97664 10.99781 1413 ft 136 kts 273°
2026-05-04 18:48 50.97785 10.98290 1205 ft 136 kts 273°
2026-05-04 18:48 50.97900 10.96833 1045 ft 126 kts 274°
2026-05-04 18:48 50.97986 10.95755 1044 ft 70 kts 277°
2026-05-04 18:49 50.98032 10.95183 1044 ft 40 kts 277°
2026-05-04 18:49 50.98048 10.94966 1044 ft 11 kts 277°
2026-05-04 18:49 50.98052 10.94920 1044 ft 2 kts 268°
2026-05-04 18:49 50.98047 10.94895 1044 ft 2 kts 244°
2026-05-04 18:50 50.98039 10.94878 1044 ft 1 kts 229°
2026-05-04 18:50 50.98032 10.94867 1044 ft 1 kts 219°
2026-05-04 18:50 50.98021 10.94857 1044 ft 2 kts 199°
2026-05-04 18:50 50.98004 10.94856 1044 ft 2 kts 170°
2026-05-04 18:51 50.97986 10.94866 1044 ft 2 kts 158°
2026-05-04 18:51 50.97941 10.94895 1044 ft 13 kts 156°
2026-05-04 18:51 50.97883 10.94935 1044 ft 6 kts 157°
2026-05-04 18:51 50.97850 10.94958 1044 ft 3 kts 148°
2026-05-04 18:52 50.97835 10.94987 1044 ft 5 kts 115°
2026-05-04 18:52 50.97829 10.95035 1044 ft 4 kts 97°
2026-05-04 18:52 50.97819 10.95148 1044 ft 15 kts 98°
2026-05-04 18:52 50.97807 10.95307 1044 ft 13 kts 97°
2026-05-04 18:53 50.97796 10.95437 1044 ft 10 kts 97°
2026-05-04 18:53 50.97787 10.95543 1044 ft 8 kts 97°
2026-05-04 18:53 50.97781 10.95624 1044 ft 6 kts 97°
2026-05-04 18:53 50.97776 10.95685 1044 ft 6 kts 97°
2026-05-04 18:54 50.97768 10.95787 1044 ft 9 kts 97°
2026-05-04 18:54 50.97762 10.95877 1044 ft 7 kts 97°
2026-05-04 18:54 50.97755 10.95949 1044 ft 6 kts 97°
2026-05-04 18:54 50.97751 10.96005 1044 ft 4 kts 97°
2026-05-04 18:55 50.97747 10.96051 1044 ft 5 kts 97°
2026-05-04 18:55 50.97736 10.96192 1044 ft 5 kts 97°
2026-05-04 18:55 50.97725 10.96235 1044 ft 4 kts 135°
2026-05-04 18:56 50.97700 10.96252 1044 ft 4 kts 169°
2026-05-04 18:56 50.97666 10.96248 1044 ft 3 kts 188°
2026-05-04 18:56 50.97641 10.96235 1044 ft 3 kts 225°
2026-05-04 18:56 50.97634 10.96194 1044 ft 3 kts 267°
2026-05-04 18:57 50.97636 10.96148 1044 ft 2 kts 276°
2026-05-04 18:57 50.97632 10.96118 1044 ft 2 kts 224°
2026-05-04 18:57 50.97612 10.96108 1044 ft 2 kts 192°
2026-05-04 18:57 50.97598 10.96100 1044 ft 2 kts 211°
2026-05-04 18:58 50.97587 10.96086 1044 ft 1 kts 217°
2026-05-04 18:58 50.97580 10.96078 1044 ft 0 kts 217°